 q =   0.8498676 AU           i =  86.76156                          ( Q = 8 )



  以上,YC 2464から.



  彗星は,我が国から,間もなく観測できなくなります.



    C/2003 T4 (LINEAR)                                                    

Epoch 2005 Apr. 20.0 TT = JDT 2453480.5  

T 2005 Apr. 3.64858 TT                                  Nakano

q   0.8498664            (2000.0)            P               Q

z  +0.0000033      Peri.  181.64795     +0.06967367     +0.05437947

 +/-0.0000091      Node    93.90377     -0.90345214     +0.42682883

e   0.9999972      Incl.   86.76154     -0.42298914     -0.90269598

From 819 observations 2003 Oct. 13-2005 Mar. 28, mean residual 0".61.

   Nongravitational parameters Y1 = +8.85 +/- 0.06, Y2 = -0.3517 +/- 0.0360.

   Sublimating molecule = CO (or N2) using Yabushita's theory (MN 283, 347).

   (1/a)org.= +0.000241, (1/a)fut.= -0.000645 (+/-0.000009), Q= 7.



NAKANO

         **** Don't distribute anyone except personal use only ****

                (C) Copyright 2005 OAA/ComputingSection

write mail from CFAD0::NAKANO on 2005-03-30 06:01:35(JST).

 

◎C/2003 T4の軌道と予報位置です



  下のYC2459の記述にあるとおり,この彗星の動きは,重力,氷の非重力効果

では表せません.



  群馬の小林隆男氏(Takao Kobayashi, Oizumi)は,2003年10月13日から2005

年2月11日までに行なわれた757個の観測から,薮下理論によるCOの非重力効果

を考慮して次の軌道を計算した.平均残差は0".61.軌道改良に使用された最終

観測は,門田氏と小林氏によるもの.なお,OAA計算課でも,同じ観測群の755個

の観測を使用して,軌道を改良したが,その結果は,小林氏の計算を支持してい

る.ただし,彗星の観測が延びるにつれ,それぞれの非重力効果の係数(H2O or 

CO)は,その量の約1/2まで小さくなっていくだろう(NK 1169; http://www.oaa

.gr.jp/~oaacs/nk/nk1169.htm).



          Epoch = 2005 Apr. 20.0 TT   。                Y1 = +9.83, Y2 = -1.0699

T = 2005 Apr. 3.64958 TT     ω = 181.64880               (1/a)org.= +0.000230

e =   0.9998195              Ω =  93.90381   (2000.0)    (1/a)fur.= -0.000430

q =   0.8498386 AU           i =  86.76157                          ( Q = 7 )



  ところで,山本速報2455の軌道(〜2005年1月10日; HICQ 2005)からの2

月11日の観測のずれは,赤経方向で-2".5,赤緯方向で+10".5くらいとなり,も

はや,全期間にわたる観測群を重力のみの軌道改良でフィットさせることは不可

能となった.一方,H2Oによる非重力効果も,A1= +27.5,A2= -9.29と観測期間

が延びるにつれ,少し小さくなってきたが,期間の始めと最後の観測群に残差の

かたより(約1")が見られ,軌道のねじれが生じてきた.これに反して,COの非

重力効果を考慮した軌道(〜2005年1月2日)からの2月11日の観測のずれは,

赤経方向で -1".5,赤緯方向で -3".0と小さく,新たに改良された上の軌道でも,

すべての観測を奇麗にフィットしている.従って,現段階では,彗星に働いてい

る非重力効果は,COの昇華によるものと考えても良いだろう.

  OAA計算課では,小林氏の軌道から次の予報を計算した.なお,光度パラメ−

タは,HICQ 2005用に中央局のグリーン(D. W. E. Green, CFA)によって新たに

決定されたもの.



    C/2003 T4 (LINEAR)                                                    

Epoch 2005 Apr. 20.0 TT = JDT 2453480.5  

T 2005 Apr. 3.64884 TT                                  Nakano

q   0.8498582            (2000.0)            P               Q

z  +0.0001316      Peri.  181.64718     +0.06967359     +0.05437977

 +/-0.0000192      Node    93.90381     -0.90345789     +0.42681657

e   0.9998882      Incl.   86.76157     -0.42297688     -0.90270175

From 771 observations 2003 Oct. 13-2005 Mar. 1, mean residual 0".60.

   Nongravitational parameters Y1 = +9.67 +/- 0.12, Y2 = -0.7312 +/- 0.0796.

   Sublimating molecule = CO (or N2) using Yabushita's theory (MN 283, 347).

   (1/a)org.= +0.000232, (1/a)fut.= -0.000535 (+/-0.000019), Q= 7.

 

Date/        TT  R.A.(2000) Decl.     Delta   r     Daily motion  Mag.  Moon Age

              h    h  m       。  ,                      ,  / PA 。  m1      。

2005 Mar.  5 18  20 38.47  +09 29.3   1.540  1.002    49.9 / 136   8.9   45  .28

           6 18  20 40.81  +08 53.4   1.529  0.993    50.7 / 136   8.9   36  .18

           7 18  20 43.19  +08 16.9   1.517  0.984    51.5 / 136   8.9   31  .10

           8 18  20 45.59  +07 39.9   1.506  0.975    52.3 / 136   8.8   31  .04

           9 18  20 48.02  +07 02.2   1.494  0.966    53.1 / 136   8.8   36  .01

          10 18  20 50.49  +06 23.8   1.483  0.958    54.0 / 136   8.7   45  .00

          11 18  20 52.99  +05 44.8   1.471  0.950    55.0 / 136   8.7   56  .02

          12 18  20 55.54  +05 05.1   1.459  0.942    55.9 / 136   8.7   67  .07

          13 18  20 58.12  +04 24.6   1.447  0.934    56.9 / 136   8.6   78  .14

          14 18  21 00.75  +03 43.5   1.434  0.926    58.0 / 136   8.6   90  .22

          15 18  21 03.43  +03 01.6   1.422  0.919    59.1 / 136   8.5  101  .30

          16 18  21 06.16  +02 18.9   1.410  0.913    60.3 / 136   8.5  112  .40

          17 18  21 08.94  +01 35.4   1.398  0.906    61.5 / 136   8.5  123  .49

          18 18  21 11.78  +00 51.1   1.385  0.900    62.7 / 136   8.4  133  .59

          19 18  21 14.68  +00 06.0   1.373  0.894    64.0 / 136   8.4  143  .68

          20 18  21 17.65  -00 39.9   1.360  0.888    65.3 / 136   8.4  153  .76

          21 18  21 20.69  -01 26.7   1.348  0.883    66.7 / 136   8.3  160  .84

          22 18  21 23.80  -02 14.3   1.335  0.878    68.1 / 135   8.3  163  .90

          23 18  21 26.99  -03 02.8   1.323  0.874    69.5 / 135   8.3  159  .95

          24 18  21 30.26  -03 52.1   1.311  0.870    71.0 / 135   8.2  150  .99

          25 18  21 33.61  -04 42.3   1.298  0.866    72.5 / 135   8.2  139 1.00

          26 18  21 37.06  -05 33.3   1.286  0.863    74.1 / 135   8.2  128  .99

          27 18  21 40.60  -06 25.2   1.274  0.860    75.6 / 134   8.1  116  .96

          28 18  21 44.25  -07 17.9   1.262  0.857    77.3 / 134   8.1  103  .91

          29 18  21 48.00  -08 11.4   1.250  0.855    78.9 / 134   8.1   90  .84

          30 18  21 51.85  -09 05.8   1.239  0.853    80.5 / 133   8.1   77  .75

          31 18  21 55.83  -10 00.8   1.227  0.852    82.2 / 133   8.0   64  .64

     Apr.  1 18  21 59.92  -10 56.6   1.216  0.851    83.9 / 132   8.0   50  .53

           2 18  22 04.14  -11 53.1   1.205  0.850    85.6 / 132   8.0   37  .42

           3 18  22 08.49  -12 50.2   1.195  0.850    87.3 / 132   8.0   23  .31

           4 18  22 12.97  -13 48.0   1.184  0.850    88.9 / 131   7.9    9  .21

           5 18  22 17.59  -14 46.2   1.174  0.851    90.6 / 131   7.9    4  .12

NAKANO

         **** Don't distribute anyone except personal use only ****

                (C) Copyright 2005 OAA/ComputingSection

write mail from CFAD0::NAKANO on 2005-03-05 00:22:54(JST).

 

    C/2003 T4 (LINEAR)                                                    

Epoch 2005 Apr. 20.0 TT = JDT 2453480.5  

T 2005 Apr. 3.64895 TT                                  Nakano

q   0.8496936            (2000.0)            P               Q

z  -0.0006383      Peri.  181.67911     +0.06970397     +0.05434193

 +/-0.0000031      Node    93.90382     -0.90321988     +0.42732004

e   1.0005423      Incl.   86.76152     -0.42347987     -0.90246581

From 697 observations 2003 Oct. 13-2005 Jan. 10, mean residual 0".81.

   (1/a)org.= +0.000299, (1/a)fut.= -0.000698 (+/-0.000003), Q= 7.



NAKANO

         **** Don't distribute anyone except personal use only ****

                (C) Copyright 2005 OAA/ComputingSection

write mail from CFAD0::NAKANO on 2005-02-04 04:54:38(JST).

 



    C/2003 T4 (LINEAR)                                                    

Epoch 2005 Apr. 20.0 TT = JDT 2453480.5  

T 2005 Apr. 3.64683 TT                                  Nakano

q   0.8496918            (2000.0)            P               Q

z  -0.0006545      Peri.  181.67850     +0.06970135     +0.05434381

 +/-0.0000028      Node    93.90370     -0.90322454     +0.42731040

e   1.0005561      Incl.   86.76145     -0.42347036     -0.90247026

From 698 observations 2003 Oct. 13-2004 Dec. 25, weighting mean residual 0".75.

   (1/a)org.= +0.000283, (1/a)fut.= -0.000714 (+/-0.000003), Q= 7.



NAKANO

         **** Don't distribute anyone except personal use only ****

                (C) Copyright 2005 OAA/ComputingSection

write mail from CFAD0::NAKANO on 2005-01-04 01:58:32(JST).

 



◎C/2003 T4の軌道と予報位置です

 

  上尾の門田健一氏は,12月18日に夕方の空,25日には明け方の空で,この

彗星を観測しました.氏の CCD全光度は,それぞれ,12.2等と11.9等でした.

彗星は,予報どおり増光しています.なお,12月には,彗星の位置は,以前

の軌道(NK 1084 = YC 2432)から,特に赤緯方向に20"ほどの大きなずれが

ありました.

 

    C/2003 T4 (LINEAR)                                                    

Epoch 2005 Apr. 20.0 TT = JDT 2453480.5  

T 2005 Apr. 3.64683 TT                                  Nakano

q   0.8496918            (2000.0)            P               Q

z  -0.0006545      Peri.  181.67850     +0.06970135     +0.05434381

 +/-0.0000028      Node    93.90370     -0.90322454     +0.42731040

e   1.0005561      Incl.   86.76145     -0.42347036     -0.90247026

From 698 observations 2003 Oct. 13-2004 Dec. 25, weighting mean residual 0".75.

   (1/a)org.= +0.000283, (1/a)fut.= -0.000714 (+/-0.000003), Q= 7.

 

Date/        TT  R.A.(2000) Decl.     Delta   r     Daily motion  Mag.  Moon Age

              h    h  m       。  ,                      ,  / PA 。  m1      。

2005 Jan.  1 18  18 13.34  +38 32.9   2.014  1.780    40.6 / 129  10.0   95  .69

           2 18  18 16.03  +38 07.3   2.007  1.766    40.6 / 129  10.0   91  .60

           3 18  18 18.69  +37 41.8   2.001  1.753    40.6 / 129  10.0   86  .50

           4 18  18 21.34  +37 16.2   1.995  1.740    40.5 / 129   9.9   81  .39

           5 18  18 23.97  +36 50.6   1.989  1.727    40.5 / 129   9.9   76  .29

           6 18  18 26.57  +36 25.1   1.983  1.714    40.4 / 129   9.9   72  .19

           7 18  18 29.16  +35 59.5   1.977  1.700    40.4 / 129   9.8   68  .11

           8 18  18 31.73  +35 33.9   1.971  1.687    40.3 / 129   9.8   65  .05

           9 18  18 34.28  +35 08.4   1.965  1.674    40.3 / 129   9.8   63  .01

          10 18  18 36.81  +34 42.8   1.959  1.661    40.2 / 129   9.7   63  .00

          11 18  18 39.33  +34 17.2   1.953  1.648    40.2 / 129   9.7   65  .03

          12 18  18 41.83  +33 51.7   1.947  1.634    40.1 / 129   9.7   69  .08

          13 18  18 44.31  +33 26.1   1.941  1.621    40.1 / 129   9.6   73  .15

          14 18  18 46.77  +33 00.6   1.935  1.608    40.1 / 129   9.6   79  .24

          15 18  18 49.21  +32 35.0   1.929  1.595    40.0 / 130   9.5   85  .34

          16 18  18 51.64  +32 09.4   1.924  1.582    40.0 / 130   9.5   91  .44

